ATLAS 5 CENTAUR DEB, 44040

Orbit data source: Space-Track

ATLAS 5 CENTAUR DEB, 44040 is space debris in HEO originally from a launch on Wed, 17 Sep 2014 UTC launched from the Air Force Eastern Test Range (AFETR). Debris objects in space refer to the collection of defunct objects orbiting the Earth. Examples of debris include non-operational satellites, rocket bodies, and fragments generated from explosions, collisions, or faulty payload assembly.

Loading next visibility...
Identifier
44040, 2014-055CA
Orbit
HEO
Last TLE update
2 days ago
Origin
Manufacturer
Unknown
Mission
Spacecraft
Bus & Motor
Unknown
Mass
Unknown
Launch date (UTC)
2014-09-17 (11 years ago)
Launch vehicle
Unknown
Launch site
Air Force Eastern Test Range (AFETR)
Object type
Payload
Rocket body
Debris
Shape & HBR
Unknown
Radar Cross Section
Small (<0.1 m²)

Expand to show TLE details & history

TLE from 2 days ago
0 ATLAS 5 CENTAUR DEB
1 44040U 14055CA  25131.33480743 -.00000006  00000-0  00000-0 0  9998
2 44040  19.7257 175.3426 4867806 110.9302 306.6170  1.88060636 44298
Epoch: 2025-05-11T08:02Z
Definitive object data (Epoch: 2025-05-11T08:02:07.361Z)
Latitude
Longitude
-174.43916°
Altitude
19,188.678 km
Speed
4.099 km/s
True Right ascension
11h 41m 49s
True Declination
0° 00' 00"
Sunlit
Object was in daylight at TLE epoch
Visualization TLE readout
Latitude
-19.20078°
Longitude
109.16791°
Altitude
34,455.816 km
Speed
2.269 km/s
Apparent Right ascension
06h 11m 21s
Apparent Declination
-23° 09' 17"
Sunlit
Object is in daylight
Visualization observer readout
Local Sidereal Time
14:16:56
Azimuth
270.421° WNW
Elevation
-38.294°
Doppler factor
1
Orbital elements
Apogee altitude
34,845.662 km
Perigee altitude
7,851.84 km
Semi-major axis
27,726.888 km
Eccentricity
0.4867806
Inclination
19.7257°
RAAN
175.3426°
Arg. of periapsis
110.9302°
True anomaly
249.12024°
Mean anomaly
306.617°
Eccentric anomaly
279.07569°
Mean motion
0.4701 °/min
BSTAR
Unknown
Orbital period
765.79 mins
Loading maneuver chart data...
Loading SW <> Apogee altitude chart data...

ATLAS 5 CENTAUR DEB Visibility forecast

Observer location: undefined°, undefined°

Span
Click to sort rows by Start time (UTC) header in descending order
Start Az.
Max El. time (UTC)
Max El. Az.
Max El.
End time (UTC)
End Az.
119 mins2025-05-13 12:39:25.625Z266.113° W2025-05-13 13:17:25.625Z198.13° SSW34.462°2025-05-13 14:38:25.625Z132.639° SE
226 mins2025-05-13 20:34:25.625Z132.335° SE2025-05-13 23:09:25.625Z126.229° SE15.931°2025-05-14 00:20:25.625Z106.109° ESE
|